Vorticity
7 6 6 6 7 7 6 5 6 7 7 7 7 6 6 6 6 6 6 7 7 8 7 8 7 6 7 7 7 -2 4 11 8 6 6 7 7 7 6 8 9 9 7 8 7 7 9
5 7 7 6 6 7 7 6 6 6 7 7 7 7 7 6 7 7 7 7 8 7 8 8 8 8 7 7 8 7 7 3 1 5 7 7 6 6 5 10 10 10 13 9 9 7 8
10 7 7 7 7 6 7 6 6 6 6 6 7 7 6 7 7 7 7 8 8 8 7 7 7 7 8 7 7 10 11 7 7 7 8 7 6 6 10 7 7 7 4 4 6 8 4
11 10 8 7 6 6 7 7 7 6 6 6 6 7 7 6 7 8 8 8 8 8 9 8 7 7 7 7 9 8 8 7 11 12 9 8 7 6 5 4 5 12 7 6 13 14 8
14 12 10 7 6 6 7 7 7 7 7 7 7 7 8 7 6 7 8 8 7 7 9 9 8 9 12 11 10 8 10 9 4 3 6 6 7 6 7 4 4 8 -3 13 10 5 4
9 11 11 6 6 7 7 8 8 8 8 7 8 8 8 9 7 7 8 8 8 7 8 9 9 11 4 -4 18 15 11 10 8 10 9 7 7 5 6 6 -7 1 9 2 3 11 8
6 10 11 10 9 4 8 9 8 7 7 9 9 9 8 9 8 8 7 8 9 10 7 9 -12 18 -4 2 18 8 10 13 16 9 9 7 4 0 10 12 6 -6 7 8 10 8 3
9 8 5 11 10 10 7 8 9 10 9 2 3 7 9 9 9 8 8 8 8 2 10 8 10 11 7 3 5 7 12 10 11 10 13 8 6 16 7 10 9 7 3 1 4 5 7
7 5 6 7 13 8 7 9 11 5 4 4 17 0 10 10 9 9 9 8 7 8 6 6 6 9 7 8 4 6 6 7 8 11 9 10 -5 24 8 13 4 8 9 9 3 0 1
10 6 6 13 12 13 13 12 8 9 3 7 2 9 7 10 7 9 10 8 8 9 10 17 19 29 20 8 11 10 7 5 6 9 8 18 11 1 12 14 7 9 7 8 8 12 6
13 15 8 6 9 8 8 12 13 8 12 16 12 2 14 11 10 9 10 14 11 11 7 23 22 5 15 13 -0 26 17 11 3 5 5 -3 12 23 4 -4 2 4 6 6 9 13 12
21 3 1 8 -1 6 0 11 10 17 14 6 16 10 8 13 11 10 9 8 11 8 12 10 8 13 10 12 6 13 21 18 14 7 10 6 2 8 15 20 21 11 21 16 13 11 16
25 8 21 5 -3 7 5 5 5 12 16 11 10 12 13 7 13 11 11 12 9 -4 10 23 7 11 14 13 7 4 10 13 -4 11 14 14 5 4 5 5 8 8 8 9 12 12 3
16 16 5 6 -1 4 7 10 6 11 14 12 11 16 26 -7 10 14 16 16 1 23 -12 -14 19 12 6 5 10 9 6 7 8 -1 1 26 23 21 17 4 -5 19 -3 -12 7 8 8
11 16 7 16 13 10 8 10 20 11 13 14 13 7 13 8 8 15 15 3 7 14 1 9 14 15 11 9 -8 11 10 5 6 13 -7 17 7 17 4 21 5 31 7 12 -12 10 7
10 13 19 -1 4 13 11 4 14 12 19 10 17 11 5 10 13 16 15 -15 8 -3 -3 12 13 13 11 11 4 7 5 27 17 9 20 17 3 15 10 11 14 -13 24 12 11 4 7
-1 2 1 9 13 15 18 12 11 -0 13 14 3 20 18 1 2 12 5 6 7 -1 -10 14 14 -4 4 4 7 13 -2 7 12 11 14 5 2 13 15 15 10 7 3 -6 1 -3 8
31 5 10 17 31 37 35 44 1 0 -6 14 22 12 11 -1 16 13 3 7 6 6 10 14 9 5 5 13 14 6 -4 -1 20 12 9 11 9 18 6 8 14 12 10 8 -11 23 3
5 23 20 15 -2 16 8 18 64 9 -5 15 4 5 4 14 9 8 10 17 13 5 5 8 7 16 11 8 3 17 13 10 4 7 12 22 14 10 21 27 13 7 8 5 4 -5 9
23 19 7 13 0 7 25 30 -3 68 10 1 10 3 16 12 8 11 9 15 8 -0 10 10 6 11 12 12 13 -3 13 13 12 12 6 3 3 -12 -4 5 13 19 35 24 7 6 -2
35 42 54 24 3 18 4 12 11 7 25 34 12 9 -4 16 22 13 8 -6 -4 22 14 12 18 13 8 12 12 5 9 7 8 12 9 9 2 8 5 1 3 2 1 6 6 8 -6
6 6 8 5 4 6 10 20 11 20 10 -1 16 -15 34 -1 12 4 10 11 20 11 14 14 9 7 17 11 5 8 22 9 -4 18 2 1 4 20 20 13 10 9 8 6 6 4 4
35 19 -5 3 -1 3 5 2 20 7 15 22 9 11 8 17 11 14 7 1 6 13 6 6 6 13 15 13 15 14 11 15 3 25 13 10 14 12 19 13 13 41 26 20 12 14 14
-11 4 11 12 12 11 9 12 8 10 19 15 15 17 14 10 10 22 8 13 -3 2 14 22 22 16 18 15 13 12 12 7 5 4 3 -2 7 9 11 4 21 16 19 12 14 13 14
6 6 12 15 15 13 14 14 12 12 9 7 10 16 13 13 19 15 15 18 20 18 11 11 10 8 6 7 12 13 16 19 10 7 6 7 9 1 -1 21 -14 -4 -6 1 6 13 4
6 4 5 1 3 6 2 2 4 5 8 7 7 7 9 5 10 12 10 10 9 8 7 8 8 7 8 8 13 12 1 3 18 13 33 25 21 -9 19 7 -8 18 23 17 18 4 26
11 6 6 12 15 15 15 17 7 2 9 9 12 13 11 10 14 14 11 4 10 12 1 8 5 8 12 14 9 7 7 -6 0 3 17 11 15 4 -3 -5 16 10 11 15 13 -17 26
5 8 7 7 7 6 7 9 10 11 12 10 9 10 10 9 8 14 14 15 18 11 6 3 11 11 14 18 8 6 12 7 16 -1 3 6 14 20 31 8 21 30 17 -3 3 8 -6
5 5 5 5 5 5 5 6 6 5 5 7 11 12 12 12 3 9 12 10 9 8 10 5 1 -1 1 5 10 16 10 -0 11 -2 18 17 -8 -12 -10 -1 -5 -5 7 6 -1 -13 5
Height
3107 3106 3105 3104 3104 3103 3102 3101 3101 3100 3100 3100 3100 3099 3100 3100 3099 3100 3100 3100 3099 3100 3100 3101 3101 3102 3102 3103 3103 3104 3104 3105 3105 3106 3107 3108 3108 3109 3110 3109 3110 3111 3112 3112 3113 3113 3113
3103 3103 3102 3101 3100 3100 3099 3098 3098 3098 3098 3097 3098 3098 3097 3098 3098 3098 3098 3098 3098 3096 3097 3097 3098 3098 3099 3100 3100 3101 3102 3103 3103 3104 3105 3106 3106 3107 3107 3108 3108 3109 3110 3110 3111 3111 3111
3098 3098 3098 3097 3097 3097 3096 3095 3095 3095 3094 3094 3094 3095 3094 3094 3095 3095 3095 3094 3095 3095 3094 3094 3094 3094 3096 3097 3097 3098 3098 3099 3100 3101 3102 3103 3103 3105 3105 3107 3107 3107 3109 3109 3109 3109 3109
3093 3094 3094 3094 3093 3093 3093 3092 3091 3091 3091 3091 3091 3091 3091 3091 3091 3092 3092 3092 3092 3092 3091 3090 3090 3092 3092 3092 3093 3093 3095 3095 3096 3098 3099 3100 3101 3102 3103 3105 3105 3106 3107 3107 3107 3107 3107
3089 3089 3089 3089 3089 3088 3088 3088 3087 3087 3087 3087 3087 3088 3088 3088 3088 3088 3088 3089 3088 3088 3088 3088 3088 3088 3089 3088 3089 3090 3091 3092 3093 3095 3096 3097 3098 3099 3101 3102 3104 3103 3104 3105 3105 3104 3105
3084 3084 3084 3084 3084 3083 3083 3083 3082 3082 3082 3082 3083 3083 3084 3084 3084 3084 3084 3084 3084 3084 3085 3085 3084 3086 3083 3084 3085 3085 3086 3088 3089 3091 3093 3094 3095 3095 3096 3098 3099 3100 3101 3102 3102 3103 3103
3081 3080 3079 3079 3079 3079 3079 3078 3078 3078 3078 3079 3079 3079 3079 3080 3080 3080 3081 3082 3083 3082 3081 3081 3081 3079 3080 3081 3082 3082 3083 3084 3086 3087 3088 3089 3090 3090 3094 3096 3097 3097 3099 3099 3099 3100 3101
3075 3074 3074 3074 3074 3074 3073 3073 3074 3074 3074 3074 3075 3075 3075 3075 3076 3077 3077 3078 3078 3078 3076 3076 3076 3077 3076 3077 3078 3079 3081 3082 3082 3083 3084 3086 3085 3089 3090 3091 3093 3094 3095 3096 3097 3097 3098
3070 3070 3069 3068 3068 3068 3068 3068 3069 3069 3069 3069 3070 3070 3071 3071 3071 3073 3074 3074 3075 3074 3073 3071 3071 3071 3072 3074 3073 3075 3077 3077 3078 3080 3081 3082 3083 3084 3086 3087 3088 3090 3091 3092 3094 3094 3094
3065 3065 3064 3064 3064 3063 3063 3063 3064 3064 3064 3064 3065 3065 3066 3067 3069 3068 3070 3070 3070 3071 3069 3066 3065 3064 3065 3067 3068 3069 3070 3075 3075 3077 3078 3079 3079 3081 3082 3083 3086 3087 3087 3088 3090 3091 3091
3060 3060 3060 3060 3059 3058 3058 3058 3058 3058 3058 3059 3059 3060 3061 3062 3063 3065 3067 3066 3067 3069 3069 3062 3059 3059 3060 3063 3063 3063 3066 3068 3070 3072 3075 3075 3075 3076 3078 3080 3082 3083 3084 3085 3086 3086 3087
3056 3055 3055 3054 3053 3053 3052 3052 3052 3052 3052 3052 3053 3054 3056 3057 3059 3061 3061 3063 3065 3069 3061 3056 3055 3055 3057 3058 3060 3061 3062 3065 3067 3068 3070 3071 3073 3074 3075 3076 3077 3079 3081 3082 3083 3084 3085
3052 3050 3050 3049 3048 3046 3047 3048 3048 3048 3047 3047 3048 3049 3051 3052 3055 3055 3057 3059 3063 3059 3055 3053 3052 3053 3054 3056 3058 3059 3060 3061 3063 3066 3066 3067 3069 3070 3072 3073 3074 3076 3078 3080 3085 3085 3080
3048 3046 3045 3045 3043 3043 3043 3043 3043 3042 3042 3042 3043 3044 3045 3047 3049 3051 3052 3055 3053 3050 3050 3049 3050 3051 3052 3053 3055 3056 3057 3058 3060 3061 3062 3064 3066 3065 3066 3068 3071 3071 3074 3074 3082 3081 3074
3043 3040 3038 3037 3037 3037 3037 3038 3037 3038 3037 3038 3038 3041 3042 3043 3044 3046 3048 3047 3046 3046 3048 3048 3049 3048 3049 3050 3053 3054 3055 3055 3056 3058 3061 3060 3061 3060 3062 3064 3068 3067 3069 3071 3071 3073 3074
3039 3036 3034 3033 3032 3031 3032 3032 3033 3033 3033 3034 3035 3036 3038 3040 3041 3042 3043 3041 3042 3043 3045 3045 3046 3046 3046 3047 3050 3051 3051 3050 3051 3053 3055 3056 3058 3058 3059 3061 3063 3064 3066 3068 3069 3076 3076
3035 3032 3030 3027 3025 3024 3023 3025 3027 3028 3028 3030 3030 3030 3030 3034 3037 3039 3037 3038 3038 3041 3042 3043 3043 3042 3043 3044 3046 3047 3048 3048 3048 3049 3051 3053 3055 3056 3056 3056 3057 3060 3060 3063 3064 3064 3065
3030 3027 3025 3021 3018 3015 3013 3014 3017 3020 3023 3024 3023 3027 3027 3030 3034 3034 3033 3034 3036 3036 3038 3039 3039 3039 3040 3041 3042 3043 3044 3044 3044 3046 3047 3049 3050 3051 3052 3052 3053 3054 3055 3058 3059 3059 3059
3026 3022 3019 3018 3017 3014 3012 3008 3008 3010 3015 3018 3023 3024 3025 3026 3027 3029 3030 3031 3032 3033 3033 3034 3034 3034 3035 3037 3040 3038 3039 3040 3041 3043 3043 3045 3046 3048 3049 3051 3049 3049 3050 3052 3053 3053 3053
3022 3018 3016 3016 3016 3014 3007 3005 3005 3006 3009 3015 3018 3020 3020 3022 3024 3025 3027 3028 3029 3028 3029 3029 3030 3030 3031 3032 3034 3034 3035 3036 3037 3038 3040 3041 3042 3042 3042 3043 3044 3045 3045 3047 3049 3049 3047
3020 3016 3015 3018 3018 3016 3012 3007 3008 3010 3008 3011 3014 3017 3017 3019 3021 3021 3024 3023 3023 3024 3024 3024 3025 3026 3027 3029 3029 3029 3030 3032 3033 3034 3036 3038 3038 3039 3039 3040 3041 3041 3041 3042 3043 3044 3044
3025 3023 3021 3021 3020 3018 3015 3013 3013 3011 3011 3013 3011 3013 3016 3016 3018 3018 3019 3019 3019 3020 3021 3021 3022 3022 3023 3024 3025 3025 3026 3027 3030 3030 3032 3033 3034 3034 3034 3035 3035 3034 3036 3036 3036 3036 3035
3029 3026 3025 3025 3023 3021 3018 3016 3014 3013 3013 3012 3013 3013 3014 3014 3015 3017 3017 3017 3017 3017 3017 3017 3019 3019 3019 3020 3021 3022 3023 3024 3025 3026 3028 3029 3030 3031 3030 3030 3030 3027 3027 3027 3028 3028 3030
3032 3031 3028 3026 3024 3022 3020 3018 3016 3015 3014 3013 3012 3012 3012 3012 3012 3011 3012 3012 3013 3014 3013 3014 3014 3014 3016 3016 3018 3019 3020 3021 3022 3022 3023 3024 3026 3028 3026 3028 3029 3018 3019 3021 3022 3022 3023
3036 3033 3030 3028 3026 3024 3022 3020 3018 3017 3015 3014 3012 3013 3012 3011 3010 3010 3009 3009 3009 3010 3011 3011 3012 3013 3013 3014 3016 3016 3017 3017 3016 3016 3017 3019 3020 3022 3022 3021 3014 3013 3013 3015 3016 3018 3018
3039 3036 3034 3032 3028 3025 3023 3022 3020 3018 3017 3015 3014 3013 3012 3010 3009 3009 3008 3008 3008 3008 3009 3009 3009 3010 3010 3011 3012 3011 3010 3010 3010 3010 3010 3012 3014 3017 3016 3015 3013 3006 3008 3009 3011 3008 3012
3040 3038 3035 3032 3030 3028 3026 3023 3021 3020 3018 3016 3014 3013 3012 3010 3009 3008 3007 3006 3006 3006 3006 3007 3006 3006 3007 3006 3007 3007 3006 3006 3005 3004 3006 3007 3008 3008 3009 3008 3002 3001 3003 3004 3007 3007 3005
3042 3040 3037 3033 3031 3028 3025 3023 3021 3018 3016 3014 3012 3010 3009 3007 3005 3004 3004 3003 3003 3002 3003 3003 3004 3002 3002 3002 3002 3001 2999 2998 2998 2997 2997 3000 3001 3001 3002 3003 2999 2996 2996 3000 2999 2998 2999
3042 3039 3037 3034 3031 3027 3024 3021 3019 3016 3014 3012 3010 3007 3005 3004 3003 3000 2999 2998 2998 2998 2998 2997 2998 2997 2996 2996 2996 2995 2993 2992 2992 2992 2992 2995 2995 2995 2996 2992 2990 2990 2991 2992 2993 2993 2992